Powrót do katalogu

CENTAURI-6

AktywnyŁącznośćVLEO
NORAD 59451·PAYLOAD·🇦🇺 Australia

Wystrzelony Apr 7, 2024 z Cape Canaveral Space Force Station

Loading…

Następne Przeloty (najbliższe 24 godziny)

TLE

ŚwieżeSource: Space-Track

Epoka: Sep 14, 2026, 09:51 UTC

1 59451U 24066K   26257.41053361  .00003493  00000-0  24924-3 0  9990
2 59451  45.6054 148.2528 0001447 219.0263 141.0517 15.06496972133576

Śledź CENTAURI-6 w czasie rzeczywistym z AllMySat

Download on the App Store